TimeEST,TemperatureF,Dew PointF,Humidity,Sea Level PressureIn,VisibilityMPH,Wind Direction,Wind SpeedMPH,Gust SpeedMPH,PrecipitationIn,Events,Conditions,WindDirDegrees,DateUTC
12:53 AM,24.1,16.0,71,30.18,10.0,Calm,Calm,-,N/A,,Clear,0,2013-02-19 05:53:00
1:53 AM,24.1,15.1,69,30.16,10.0,Calm,Calm,-,N/A,,Clear,0,2013-02-19 06:53:00
2:53 AM,21.2,15.8,80,30.13,10.0,Calm,Calm,-,N/A,,Clear,0,2013-02-19 07:53:00
3:53 AM,21.0,18.0,88,30.12,10.0,Calm,Calm,-,N/A,,Clear,0,2013-02-19 08:53:00
4:53 AM,19.9,17.1,89,30.10,10.0,Calm,Calm,-,N/A,,Clear,0,2013-02-19 09:53:00
5:53 AM,19.9,16.0,85,30.08,10.0,Calm,Calm,-,N/A,,Clear,0,2013-02-19 10:53:00
6:53 AM,19.0,16.0,88,30.05,10.0,Calm,Calm,-,N/A,,Clear,0,2013-02-19 11:53:00
7:53 AM,23.0,18.0,81,30.05,10.0,Calm,Calm,-,N/A,,Clear,0,2013-02-19 12:53:00
8:53 AM,28.0,21.0,75,30.02,7.0,Calm,Calm,-,N/A,,Clear,0,2013-02-19 13:53:00
9:53 AM,36.0,24.1,62,29.99,10.0,Calm,Calm,-,N/A,,Clear,0,2013-02-19 14:53:00
10:53 AM,41.0,25.0,53,29.96,10.0,South,3.5,-,N/A,,Clear,180,2013-02-19 15:53:00
11:53 AM,45.0,28.9,53,29.94,10.0,SW,10.4,32.2,0.00,Rain,Light Rain,230,2013-02-19 16:53:00
12:09 PM,41.0,35.6,81,29.93,4.0,SSW,9.2,16.1,0.02,Rain,Rain,210,2013-02-19 17:09:00
1:53 PM,39.9,37.9,93,29.84,4.0,South,3.5,-,0.06,Rain,Light Rain,170,2013-02-19 18:53:00
2:32 PM,41.0,39.2,93,29.80,6.0,SSE,4.6,-,0.03,Rain,Light Rain,160,2013-02-19 19:32:00
2:53 PM,41.0,39.0,93,29.78,4.0,SE,3.5,-,0.05,Rain,Light Rain,130,2013-02-19 19:53:00
3:31 PM,39.2,39.2,100,29.75,2.5,Calm,Calm,-,0.04,Rain,Light Rain,0,2013-02-19 20:31:00
3:53 PM,39.9,39.9,100,29.75,2.5,Calm,Calm,-,0.05,Rain,Light Rain,0,2013-02-19 20:53:00
4:10 PM,39.2,39.2,100,29.73,3.0,Calm,Calm,-,0.02,Rain,Light Rain,0,2013-02-19 21:10:00
4:21 PM,39.2,39.2,100,29.72,2.0,Calm,Calm,-,0.03,Rain,Light Rain,0,2013-02-19 21:21:00
4:40 PM,39.2,39.2,100,29.72,0.8,Calm,Calm,-,0.05,Rain,Light Rain,0,2013-02-19 21:40:00
4:53 PM,39.0,39.0,100,29.73,0.5,Calm,Calm,-,0.06,Fog-Rain,Light Rain,0,2013-02-19 21:53:00
5:19 PM,39.2,39.2,100,29.71,0.2,Calm,Calm,-,0.04,Fog-Rain,Light Rain,0,2013-02-19 22:19:00
5:33 PM,39.2,39.2,100,29.70,0.8,Calm,Calm,-,0.05,Rain,Light Rain,0,2013-02-19 22:33:00
5:53 PM,39.0,37.9,96,29.70,0.8,Calm,Calm,-,0.07,Rain,Light Rain,0,2013-02-19 22:53:00
5:58 PM,39.2,39.2,100,29.70,1.5,Calm,Calm,-,0.00,Rain,Light Rain,0,2013-02-19 22:58:00
6:07 PM,37.4,37.4,100,29.70,0.8,NW,3.5,-,0.00,,Overcast,310,2013-02-19 23:07:00
7:33 PM,37.4,37.4,100,29.70,1.2,Variable,3.5,-,0.01,Rain,Light Rain,0,2013-02-20 00:33:00
7:44 PM,41.0,39.2,93,29.69,3.0,SSW,3.5,-,0.02,Rain,Light Rain,210,2013-02-20 00:44:00
7:49 PM,41.0,41.0,100,29.69,6.0,Variable,4.6,-,0.02,Rain,Light Rain,0,2013-02-20 00:49:00
7:53 PM,42.1,41.0,96,29.70,9.0,Calm,Calm,-,0.02,Rain,Light Rain,0,2013-02-20 00:53:00
8:23 PM,42.8,39.2,87,29.69,10.0,Variable,3.5,-,0.01,Rain,Light Rain,0,2013-02-20 01:23:00
8:53 PM,42.1,37.0,82,29.70,10.0,WNW,9.2,21.9,0.01,,Overcast,290,2013-02-20 01:53:00
9:08 PM,41.0,35.6,81,29.70,10.0,WNW,6.9,-,N/A,,Mostly Cloudy,300,2013-02-20 02:08:00
9:53 PM,39.9,34.0,79,29.72,10.0,Variable,6.9,-,N/A,,Clear,0,2013-02-20 02:53:00
10:53 PM,37.9,26.1,62,29.74,10.0,WNW,9.2,16.1,N/A,,Clear,290,2013-02-20 03:53:00
11:53 PM,36.0,24.1,62,29.75,10.0,WNW,5.8,-,N/A,,Partly Cloudy,300,2013-02-20 04:53:00